CW9803 Weather Reports


time (UTC)temp
F
wind
direction
speed
knots
gust
knots
rain 1hr
in
rain 24hr
in
rain mn
in
humidity
%
barometer
mb
20260505041706 59 98 0.9 0.9 0.00 0.00 0.00 60 1006.1
20260505041204 59 59 0.0 0.0 0.00 0.00 0.00 61 1006.2
20260505040701 60 115 0.0 0.0 0.00 0.00 0.00 58 1006.4
20260505040158 61 136 0.0 0.0 0.00 0.00 0.00 56 1006.2
20260505035654 61 203 0.9 0.9 0.00 0.00 0.00 55 1006.2
20260505035150 62 194 1.7 1.7 0.00 0.00 0.00 54 1006.1
20260505034647 63 168 0.0 0.0 0.00 0.00 0.00 53 1006.0
20260505034144 64 116 0.0 0.0 0.00 0.00 0.00 50 1005.9
20260505033640 64 146 0.0 0.0 0.00 0.00 0.00 50 1005.9
20260505033139 65 114 0.0 0.0 0.00 0.00 0.00 47 1005.8
20260505032637 65 99 0.0 0.9 0.00 0.00 0.00 47 1005.8
20260505032133 65 67 0.9 1.7 0.00 0.00 0.00 46 1005.7
20260505031630 65 93 0.0 0.0 0.00 0.00 0.00 47 1005.7
20260505031126 65 115 0.0 0.0 0.00 0.00 0.00 47 1005.4
20260505030623 65 133 0.0 0.0 0.00 0.00 0.00 48 1005.5
20260505030119 66 103 0.9 0.9 0.00 0.00 0.00 47 1005.3
20260505025615 66 151 0.0 0.0 0.00 0.00 0.00 46 1005.3
20260505025114 67 149 0.0 0.0 0.00 0.00 0.00 45 1005.2
20260505024611 68 330 0.9 1.7 0.00 0.00 0.00 43 1005.3
20260505024108 68 37 0.9 1.7 0.00 0.00 0.00 41 1005.3
20260505023605 68 132 0.9 1.7 0.00 0.00 0.00 41 1004.9
20260505023103 68 152 1.7 1.7 0.00 0.00 0.00 41 1005.2
20260505022600 70 66 0.9 0.9 0.00 0.00 0.00 40 1004.9
20260505022057 70 5 2.6 3.5 0.00 0.00 0.00 39 1005.3
20260505021554 71 317 2.6 2.6 0.00 0.00 0.00 38 1005.2
20260505021050 71 278 0.9 0.9 0.00 0.00 0.00 38 1005.2
20260505020550 72 175 0.9 0.9 0.00 0.00 0.00 38 1004.9
20260505020048 73 297 3.5 3.5 0.00 0.00 0.00 36 1005.1
20260505015544 73 212 1.7 2.6 0.00 0.00 0.00 35 1005.3
20260505015041 74 300 2.6 2.6 0.00 0.00 0.00 34 1005.1
20260505014538 74 305 2.6 2.6 0.00 0.00 0.00 33 1005.1
20260505014035 74 289 3.5 5.2 0.00 0.00 0.00 31 1004.8
20260505013532 75 280 2.6 3.5 0.00 0.00 0.00 32 1005.3
20260505013030 75 329 2.6 2.6 0.00 0.00 0.00 31 1005.1
20260505012528 75 318 2.6 3.5 0.00 0.00 0.00 31 1005.2
20260505012024 76 207 1.7 2.6 0.00 0.00 0.00 31 1005.1
20260505011520 76 158 0.9 1.7 0.00 0.00 0.00 31 1005.3
20260505011017 76 347 5.2 7.0 0.00 0.00 0.00 28 1005.1
20260505010512 76 132 3.5 5.2 0.00 0.00 0.00 29 1005.2
20260505010009 77 292 4.3 6.1 0.00 0.00 0.00 28 1005.1
20260505005506 77 213 5.2 7.0 0.00 0.00 0.00 29 1004.9
20260505005004 77 324 3.5 3.5 0.00 0.00 0.00 28 1005.2
20260505004501 77 234 2.6 3.5 0.00 0.00 0.00 26 1005.2
20260505003957 77 289 6.1 7.0 0.00 0.00 0.00 26 1005.2
20260505003454 77 284 5.2 8.7 0.00 0.00 0.00 25 1005.1
20260505002950 77 214 3.5 5.2 0.00 0.00 0.00 27 1004.9
20260505002446 78 313 6.1 7.8 0.00 0.00 0.00 26 1005.1
20260505001945 78 293 3.5 6.1 0.00 0.00 0.00 27 1005.2
20260505001442 78 291 3.5 5.2 0.00 0.00 0.00 25 1004.9
20260505000939 78 279 4.3 5.2 0.00 0.00 0.00 27 1005.1
20260505000437 78 331 4.3 5.2 0.00 0.00 0.00 27 1005.1
20260504235934 78 328 5.2 7.0 0.00 0.00 0.00 27 1004.9
20260504235431 78 275 1.7 2.6 0.00 0.00 0.00 27 1004.8
20260504234927 78 303 5.2 6.1 0.00 0.00 0.00 26 1004.9
20260504234425 77 294 4.3 7.8 0.00 0.00 0.00 25 1004.9
20260504233921 77 353 4.3 5.2 0.00 0.00 0.00 26 1004.9
20260504233417 78 245 4.3 6.1 0.00 0.00 0.00 26 1005.2
20260504232914 78 7 3.5 5.2 0.00 0.00 0.00 27 1004.9
20260504232411 78 323 5.2 7.8 0.00 0.00 0.00 24 1005.1
20260504231908 77 267 5.2 7.0 0.00 0.00 0.00 25 1005.1
20260504231404 78 165 3.5 3.5 0.00 0.00 0.00 26 1005.1
20260504230901 78 339 3.5 5.2 0.00 0.00 0.00 25 1005.5
20260504230358 78 231 5.2 6.1 0.00 0.00 0.00 26 1005.2
20260504225857 78 129 3.5 3.5 0.00 0.00 0.00 27 1005.2
20260504225353 79 332 5.2 7.0 0.00 0.00 0.00 26 1005.2
20260504224850 78 154 1.7 2.6 0.00 0.00 0.00 26 1005.6
20260504224347 78 250 3.5 6.1 0.00 0.00 0.00 26 1005.3
20260504223844 79 287 5.2 7.0 0.00 0.00 0.00 25 1005.4
20260504223339 79 63 3.5 5.2 0.00 0.00 0.00 25 1005.4
20260504222836 78 190 4.3 6.1 0.00 0.00 0.00 27 1005.3
20260504222333 78 302 6.1 7.8 0.00 0.00 0.00 25 1005.3
20260504221831 78 324 4.3 5.2 0.00 0.00 0.00 25 1005.4
20260504221327 78 289 3.5 5.2 0.00 0.00 0.00 26 1005.5
20260504220825 78 288 4.3 6.1 0.00 0.00 0.00 24 1005.6
20260504220321 78 301 3.5 3.5 0.00 0.00 0.00 26 1005.6
20260504215819 78 280 7.8 9.6 0.00 0.00 0.00 26 1005.7
20260504215315 78 276 4.3 7.0 0.00 0.00 0.00 26 1005.8
20260504214811 78 340 3.5 3.5 0.00 0.00 0.00 25 1005.7
20260504214308 78 310 3.5 3.5 0.00 0.00 0.00 26 1005.8
20260504213805 78 286 8.7 12.2 0.00 0.00 0.00 23 1005.7
20260504213301 78 286 3.5 6.1 0.00 0.00 0.00 24 1005.7
20260504212758 78 319 3.5 3.5 0.00 0.00 0.00 27 1005.9
20260504212254 78 282 3.5 6.1 0.00 0.00 0.00 25 1005.8
20260504211752 78 285 3.5 5.2 0.00 0.00 0.00 26 1005.9
20260504211248 78 163 3.5 6.1 0.00 0.00 0.00 25 1005.8
20260504210746 78 321 7.8 12.2 0.00 0.00 0.00 27 1006.1
20260504210243 78 306 3.5 5.2 0.00 0.00 0.00 27 1006.0
20260504205739 79 303 2.6 5.2 0.00 0.00 0.00 26 1006.0
20260504205237 78 251 3.5 3.5 0.00 0.00 0.00 28 1005.9
20260504204735 78 29 3.5 5.2 0.00 0.00 0.00 29 1006.0
20260504204233 78 301 3.5 5.2 0.00 0.00 0.00 28 1005.9
20260504203732 78 314 2.6 3.5 0.00 0.00 0.00 29 1006.0
20260504203229 79 334 3.5 3.5 0.00 0.00 0.00 29 1006.0
20260504202729 78 254 3.5 6.1 0.00 0.00 0.00 30 1005.9
20260504202227 78 285 3.5 3.5 0.00 0.00 0.00 30 1006.1
20260504201724 79 322 5.2 7.0 0.00 0.00 0.00 29 1005.9
20260504201221 78 83 1.7 2.6 0.00 0.00 0.00 31 1005.8
20260504200719 78 301 7.8 8.7 0.00 0.00 0.00 30 1006.0
20260504200214 78 268 4.3 7.8 0.00 0.00 0.00 29 1005.8
20260504195711 78 311 6.1 8.7 0.00 0.00 0.00 28 1005.8
20260504195207 78 4 3.5 3.5 0.00 0.00 0.00 31 1006.1
20260504194704 78 289 4.3 7.0 0.00 0.00 0.00 27 1005.8
20260504194200 78 277 2.6 3.5 0.00 0.00 0.00 29 1005.9
20260504193656 78 340 7.0 8.7 0.00 0.00 0.00 30 1006.2
20260504193154 78 263 2.6 6.1 0.00 0.00 0.00 28 1005.8
20260504192652 78 188 0.9 1.7 0.00 0.00 0.00 36 1006.0
20260504192150 77 109 0.9 0.9 0.00 0.00 0.00 39 1006.4
20260504191648 77 116 1.7 1.7 0.00 0.00 0.00 41 1006.1
20260504191144 77 148 0.0 0.0 0.00 0.00 0.00 40 1006.1
20260504190640 75 129 0.0 0.9 0.00 0.00 0.00 42 1006.2
20260504190137 75 127 0.0 0.9 0.00 0.00 0.00 43 1006.5
20260504185633 75 133 1.7 2.6 0.00 0.00 0.00 44 1006.7
20260504185130 73 158 0.9 0.9 0.00 0.00 0.00 43 1006.4
20260504184626 73 143 0.9 0.9 0.00 0.00 0.00 45 1006.5
20260504184121 73 142 0.9 0.9 0.00 0.00 0.00 45 1006.5
20260504183619 72 152 3.5 3.5 0.00 0.00 0.00 47 1006.6
20260504183116 72 139 0.9 1.7 0.00 0.00 0.00 44 1006.7
20260504182614 71 158 2.6 2.6 0.00 0.00 0.00 45 1006.7
20260504182111 71 139 1.7 1.7 0.00 0.00 0.00 46 1006.8
20260504181608 71 103 1.7 1.7 0.00 0.00 0.00 44 1007.0
20260504181106 70 130 0.9 0.9 0.00 0.00 0.00 45 1006.8
20260504180605 71 152 2.6 2.6 0.00 0.00 0.00 45 1006.9
20260504180103 69 145 1.7 2.6 0.00 0.00 0.00 45 1007.0
20260504175600 69 130 1.7 1.7 0.00 0.00 0.00 46 1007.0
20260504175057 69 133 1.7 2.6 0.00 0.00 0.00 48 1007.0
20260504174555 69 147 1.7 2.6 0.00 0.00 0.00 47 1007.0
20260504174051 68 130 1.7 2.6 0.00 0.00 0.00 49 1006.9
20260504173548 67 124 2.6 2.6 0.00 0.00 0.00 49 1007.1
20260504173046 67 150 2.6 3.5 0.00 0.00 0.00 49 1007.0
20260504172541 67 124 1.7 2.6 0.00 0.00 0.00 52 1007.0
20260504172038 66 146 1.7 2.6 0.00 0.00 0.00 51 1007.2
20260504171535 65 122 2.6 2.6 0.00 0.00 0.00 52 1007.3
20260504171032 65 135 2.6 3.5 0.00 0.00 0.00 54 1007.2
20260504170527 64 174 2.6 3.5 0.00 0.00 0.00 55 1007.1
20260504160443 58 131 0.0 0.0 0.00 0.00 0.00 58 1008.1
20260504150906 53 114 0.0 0.0 0.00 0.00 0.00 68 1008.6
20260504150403 52 126 0.0 0.0 0.00 0.00 0.00 71 1008.6
20260504141333 46 115 0.0 0.0 0.00 0.00 0.00 82 1008.4
20260504140829 45 116 0.0 0.0 0.00 0.00 0.00 84 1008.5
20260504140325 46 115 0.0 0.0 0.00 0.00 0.00 83 1008.5
20260504130754 39 122 0.0 0.0 0.00 0.00 0.00 95 1008.2
20260504130250 39 133 0.0 0.0 0.00 0.00 0.00 96 1008.4
20260504120214 41 131 0.0 0.0 0.00 0.00 0.00 93 1008.4
20260504110641 40 109 0.0 0.0 0.00 0.00 0.00 93 1008.5
20260504110137 40 116 0.0 0.0 0.00 0.00 0.00 93 1008.5
20260504100557 41 116 0.0 0.0 0.00 0.00 0.00 92 1008.2
20260504081950 43 119 0.0 0.0 0.00 0.00 0.00 89 1008.6
20260504081448 44 119 0.0 0.0 0.00 0.00 0.00 89 1008.6
20260504080943 44 119 0.0 0.0 0.00 0.00 0.00 88 1008.6
20260504080440 44 119 0.0 0.0 0.00 0.00 0.00 88 1008.7
20260504070408 46 119 0.0 0.0 0.00 0.00 0.00 85 1008.8
20260504050749 52 112 0.0 0.0 0.00 0.00 0.00 72 1009.0
20260504050247 53 153 0.0 0.0 0.00 0.00 0.00 71 1008.6
20260504045739 54 155 0.0 0.0 0.00 0.00 0.00 70 1008.7
20260504045233 54 156 0.0 0.0 0.00 0.00 0.00 69 1008.6
20260504044731 54 146 0.0 0.0 0.00 0.00 0.00 70 1008.8
20260504044228 54 145 0.0 0.0 0.00 0.00 0.00 69 1008.8
20260504043725 55 114 0.0 0.0 0.00 0.00 0.00 68 1008.6
20260504043222 55 113 0.0 0.0 0.00 0.00 0.00 67 1008.6